User: anonymous
Location: Unspecified
(0.0000°N, 0.0000°E)
Time: 06:25:34
(UTC+00:00)
Language:

Landsat 7 - Orbit

View from above orbital plane
View from above orbital plane
View from above satellite
View from above satellite

Ground track
Ground track

The orbit data is extracted from the following two-line orbital elements,

1 25682U 99020A   14204.75751819  .00000085  00000-0  29018-4 0  4483
2 25682 098.2137 273.8828 0001071 055.3814 304.7470 14.57103354812311
Epoch (UTC): 23 July 2014 18:10:49
Eccentricity: 0.0001071
inclination: 98.2137°
perigee height: 702 km
apogee height: 703 km
right ascension of ascending node: 273.8828°
argument of perigee: 55.3814°
revolutions per day: 14.57103354
mean anomaly at epoch: 304.7470°
orbit number at epoch: 81231

The dashed part of the orbit path shows where the satellite is in the earth's shadow,  

DLR